Regional Weather Roundup
Issued by NWS

Home | Current Version | Previous Version | Graphics & Text | Print | Product List | Glossary On
Versions: 1 2 3 4 5 6 7 8 9 10 11 12 13 14 15 16 17 18 19 20 21 22 23 24 25 26 27 28 29 30 31 32 33 34 35 36 37 38 39 40 41 42 43 44 45 46 47 48 49 50
000
ASUS43 KFSD 142102
RWRSD

WEATHER ROUNDUP FOR SOUTH DAKOTA
NATIONAL WEATHER SERVICE SIOUX FALLS SD
400 PM CDT SUN SEP 14 2014

NOTE: "FAIR" INDICATES FEW OR NO CLOUDS BELOW 12,000 FEET WITH NO
SIGNIFICANT WEATHER AND/OR OBSTRUCTIONS TO VISIBILITY.


SDZ001>005-009-010-012>017-142200-
NORTHWEST AND NORTH CENTRAL SOUTH DAKOTA

CITY           SKY/WX    TMP DP  RH WIND       PRES   REMARKS
FAITH            N/A     55  37  50 E6        30.13F
MOBRIDGE       MOSUNNY   58  38  47 VRB6      30.11F
$$

SDZ012>016-024>037-041>051-057-063-072>074-142200-
SOUTHWEST AND SOUTH CENTRAL SOUTH DAKOTA

CITY           SKY/WX    TMP DP  RH WIND       PRES   REMARKS
RAPID CTY ARPT CLOUDY    53  37  54 SE10      30.12F
PIERRE         CLOUDY    55  38  52 NE7       30.11F
CUSTER         MOSUNNY   49  37  63 E7        30.11S
ELLSWORTH AFB  CLOUDY    53  38  56 SE6       30.11F
PHILIP         CLOUDY    54  38  54 E8        30.13S
PINE RIDGE     CLOUDY    60  44  55 NE12      30.06F
WINNER         CLOUDY    61  42  49 E9        30.09F
$$

SDZ004>011-016>023-039-040-142200-
NORTHEAST SOUTH DAKOTA

CITY           SKY/WX    TMP DP  RH WIND       PRES   REMARKS
ABERDEEN       MOSUNNY   60  40  47 N6        30.12F
WATERTOWN      MOSUNNY   57  37  47 NW7       30.13S
SISSETON         N/A     60  43  53 NW9       30.12S
$$

SDZ017-020-022-023-036>040-048>070-142200-
SOUTHEAST SOUTH DAKOTA

CITY           SKY/WX    TMP DP  RH WIND       PRES   REMARKS
SIOUX FALLS    CLOUDY    64  43  46 CALM      30.11F
HURON          CLOUDY    57  40  52 N5        30.13F
CHAMBERLAIN    CLOUDY    57  41  54 NE5       30.11F
MITCHELL       CLOUDY    60  44  55 N7        30.13F
YANKTON        SUNNY     64  46  52 SE3       30.10F
$$

ABBREVIATIONS USED IN REMARKS
   TC - TEMPERATURE IN CELSIUS
  WCI - WIND CHILL INDEX
   HX - HEAT INDEX
  VSB - VISIBILITY



USA.gov is the U.S. government's official web portal to all federal, state and local government web resources and services.